Weather in Prokshino

Russia / Vologda Oblast     60°46′56″N   37°47′50″E
temp.,
°C
wind,
m/s
gust,
m/s
humid.,
%
clouds,
%
prec.,
mm/h
press.,
hPa
HPBL,
m
8 may, sat
sat800:00+2s23955 0.0 100944
03:00+2s229481 0.0 100930
06:00+3se2791100 0.0 1009191
09:00+9se41073100 0.0 1008632
12:00+11sse61464100 0.6 10061782
15:00+8sse41187100 1.4 10071326
18:00+7sse5991100 0.4 10061095
21:00+6s3796100 2.9 1006888
9 may, sun
sun900:00+5ssw2598100 2.1 1005278
03:00+3nw4796100 3.4 1005449
06:00+2nw4892100 0.3 1007677
09:00+4nw51082100 0.4 1008888
12:00+7nw7115755 0.0 10101215
15:00+8nw6104252 0.0 10131769
18:00+8nw411484 0.0 10151936
21:00+3wnw24690 0.0 101864
10 may, mon
mon1000:00+2w310790 0.0 1020233
03:00+1wsw22792 0.0 102339
06:00+3ssw26735 0.0 1024172
09:00+9ssw475119 0.0 1025622
12:00+12ssw584373 0.0 10241935
15:00+13ssw5947100 0.0 10241948
18:00+8ssw41179100 0.1 1025682
21:00+8ssw3127964 0.1 1026422
11 may, tue
tue1100:00+8ssw41380100 0.0 1026374
03:00+8ssw41286100 0.0 1027327
06:00+8ssw3128674 0.0 1027317
09:00+13sw487198 0.0 1027427
12:00+18sw575599 0.0 10271060
15:00+20sw47472 0.0 10281471
18:00+19ssw37565 0.0 1027981
21:00+12s310835 0.0 1028189
12 may, wed
wed1200:00+11ssw3118961 0.0 1029230
03:00+9ssw29946 0.0 1030177
06:00+11ssw25845 0.0 1030142
09:00+16s34605 0.0 1030513
12:00+19s35450 0.0 1029958
15:00+21ssw35440 0.0 10281197
18:00+20ssw24542 0.0 1027821
21:00+13s22770 0.0 102714